Regional Weather Roundup
Issued by NWS State College, PA

Home | Current Version | Previous Version | Text Only | Print | Product List | Glossary On
Versions: 1 2 3 4 5 6 7 8 9 10 11 12 13 14 15 16 17 18 19 20 21 22 23 24 25 26 27 28 29 30 31 32 33 34 35 36 37 38 39 40 41 42 43 44 45 46 47 48 49 50
000
ASUS41 KCTP 150510
RWRCTP

REGIONAL WEATHER ROUNDUP
NATIONAL WEATHER SERVICE STATE COLLEGE PA
100 AM EDT WED AUG 15 2018

Note: "fair" indicates few or no clouds below 12,000 feet with no
significant weather and/or obstructions to visibility.

* = STATION THAT DOES NOT REPORT PRECIPITATION /E.G. RAIN...SNOW...ETC/
    THUNDER OR FOG.

PAZ002>004-007>009-013>016-020>023-029>032-150600-
WESTERN PENNSYLVANIA

CITY           SKY/WX    TMP DP  RH WIND       PRES   REMARKS
ERIE           FAIR      71  63  75 S6        29.94S
MEADVILLE      FAIR      67  62  84 SW5       30.00S
FRANKLIN*      FAIR      63  61  93 SW6       30.02R
NEW CASTLE     FOG       63  63 100 CALM      30.01R VSB 1/4
BEAVER COUNTY  NOT AVBL
BUTLER*        FOG       64  63  96 CALM      30.02S VSB 1/4
PITTSBURGH INT FAIR      66  66 100 CALM      30.01R
PITTSBURGH     FAIR      68  66  93 S6        30.02R
INDIANA*       CLOUDY    66  66 100 VRB5      30.07R FOG
LATROBE        FAIR      68  68 100 SW8       30.03S
WASHINGTON CO* FAIR      67  64  90 S3        30.06R
$$

PAZ004>006-010>012-017>019-024>028-033>037-041-042-045-046-049>053-150600-
CENTRAL PENNSYLVANIA

CITY           SKY/WX    TMP DP  RH WIND       PRES   REMARKS
BRADFORD       FAIR      65  61  87 W8        30.01S
DUBOIS         FOG       63  63 100 SW3       30.01S VSB 1/4
CLEARFIELD     CLOUDY    65  65 100 SW6       30.01S FOG
JOHNSTOWN      FAIR      63  62  97 SW7       30.06S
ALTOONA        FAIR      65  62  90 CALM      30.03S
STATE COLLEGE  NOT AVBL
WILLIAMSPORT   FAIR      71  66  84 W8        29.90F
SELINSGROVE    FAIR      68  65  90 CALM      29.94R
FT INDIANTOWN  MOCLDY    73  64  75 W9        29.93S
CAPITAL CITY   FAIR      74  64  71 W7        29.94S
HARRISBURG     MOCLDY    72  65  78 NW9       29.93S
YORK           FAIR      71  65  81 W5        29.96S
$$

PAZ038>040-043-044-047-048-054-055-060>062-067>071-150600-
EASTERN PENNSYLVANIA

CITY           SKY/WX    TMP DP  RH WIND       PRES   REMARKS
SCRANTON       CLOUDY    66  65  96 CALM      29.92S
MOUNT POCONO   LGT RAIN  63  62  97 NW13G21   29.93S
ALLENTOWN      MOCLDY    70  66  87 W5        29.90R
QUAKERTOWN*    CLEAR     70  68  94 CALM      29.91S
READING        FAIR      72  68  87 W7        29.89F
LANCASTER      FAIR      70  67  90 NW7       29.93S
COATESVILLE    FAIR      70  66  88 W6        29.95S
POTTSTOWN      LGT RAIN  70  66  87 W6        29.92S
BLUE BELL      FAIR      68  68 100 SW3       29.92S
DOYLESTOWN     FAIR      69  67  93 SW5       29.89S
WILLOW GROVE   NOT AVBL
NORTH PHILA    MOCLDY    73  66  78 W8        29.91S
PHILADELPHIA   CLOUDY    72  68  87 SW12      29.91S
$$



USA.gov is the U.S. government's official web portal to all federal, state and local government web resources and services.